When you browse on this site, cookies collect data to enhance your experience and personalize the content and advertising you see.
Visit our Privacy Policy to learn more. By continuing to use the site, you agree to this use of cookies and data.
  • In Romania
  • List of Countries
  • For 7 days
  • Water Temperature
  • Satellite Maps
  • Weather Map
  • Weather Widgets
  • user-avatar
    Login

    Hourly Weather Búðardalur

    Today, 26 March, Tuesday

    Time Temperature Precipitation Wind Pressure Humidity
    00:00 +1°C° 0.4 mm 11 mps 748 mmHg 97%
    01:00 +1°C° 0.4 mm 11 mps 748 mmHg 97%
    02:00 +1°C° 0.4 mm 11 mps 749 mmHg 97%
    03:00 +1°C° 0.2 mm 11 mps 750 mmHg 95%
    04:00 +1°C° 0.2 mm 11 mps 751 mmHg 93%
    05:00 +1°C° 0.2 mm 10 mps 752 mmHg 91%
    06:00 0°C° 0.1 mm 10 mps 752 mmHg 88%
    07:00 -1°C° 0.1 mm 11 mps 753 mmHg 85%
    08:00 -1°C° 0.1 mm 11 mps 754 mmHg 82%
    09:00 -1°C° 0.1 mm 11 mps 754 mmHg 81%
    10:00 -2°C° 0.1 mm 11 mps 755 mmHg 80%
    11:00 -2°C° 0.1 mm 11 mps 756 mmHg 79%
    12:00 -2°C° 0.1 mm 11 mps 756 mmHg 78%
    13:00 -2°C° 0.1 mm 11 mps 756 mmHg 77%
    14:00 -2°C° 0.1 mm 11 mps 757 mmHg 76%
    15:00 -2°C° 0.1 mm 10 mps 757 mmHg 76%
    16:00 -2°C° 0.1 mm 10 mps 757 mmHg 77%
    17:00 -3°C° 0.1 mm 9 mps 757 mmHg 77%
    18:00 -3°C° 0.1 mm 9 mps 757 mmHg 79%
    19:00 -3°C° 0.1 mm 9 mps 757 mmHg 80%
    20:00 -3°C° 0.1 mm 9 mps 757 mmHg 82%
    21:00 -3°C° 0.1 mm 9 mps 756 mmHg 83%
    22:00 -3°C° 0.1 mm 9 mps 755 mmHg 84%
    23:00 -3°C° 0.1 mm 9 mps 754 mmHg 85%

    Tomorrow, 27 March, Wednesday

    Time Temperature Precipitation Wind Pressure Humidity
    00:00 -1°C° 0.3 mm 9 mps 753 mmHg 86%
    01:00 -2°C° 0.3 mm 10 mps 751 mmHg 87%
    02:00 -2°C° 0.3 mm 10 mps 750 mmHg 88%
    03:00 -1°C° 0.9 mm 11 mps 749 mmHg 88%
    04:00 -1°C° 0.9 mm 13 mps 747 mmHg 87%
    05:00 0°C° 0.9 mm 14 mps 746 mmHg 87%
    06:00 -1°C° 1.4 mm 13 mps 746 mmHg 86%
    07:00 -2°C° 1.4 mm 12 mps 746 mmHg 84%
    08:00 -3°C° 1.4 mm 11 mps 746 mmHg 83%
    09:00 -4°C° 0.3 mm 13 mps 746 mmHg 79%
    10:00 -5°C° 0.3 mm 15 mps 746 mmHg 76%
    11:00 -6°C° 0.3 mm 17 mps 746 mmHg 72%
    12:00 -7°C° 0.5 mm 16 mps 747 mmHg 75%
    13:00 -7°C° 0.5 mm 15 mps 747 mmHg 77%
    14:00 -8°C° 0.5 mm 15 mps 747 mmHg 79%
    15:00 -8°C° 0.2 mm 15 mps 747 mmHg 78%
    16:00 -8°C° 0.2 mm 15 mps 747 mmHg 77%
    17:00 -8°C° 0.2 mm 15 mps 747 mmHg 75%
    18:00 -8°C° 0.4 mm 15 mps 747 mmHg 75%
    19:00 -8°C° 0.4 mm 16 mps 747 mmHg 74%
    20:00 -9°C° 0.4 mm 16 mps 747 mmHg 73%
    21:00 -9°C° 0.3 mm 16 mps 747 mmHg 74%
    22:00 -9°C° 0.3 mm 16 mps 748 mmHg 75%
    23:00 -9°C° 0.3 mm 15 mps 748 mmHg 76%

    Day after tomorrow, 28 March, Thursday

    Time Temperature Precipitation Wind Pressure Humidity
    00:00 -9°C° 0.4 mm 16 mps 748 mmHg 76%
    01:00 -9°C° 0.4 mm 16 mps 748 mmHg 77%
    02:00 -9°C° 0.4 mm 16 mps 748 mmHg 78%
    03:00 -9°C° 0.3 mm 15 mps 748 mmHg 78%
    04:00 -9°C° 0.3 mm 15 mps 748 mmHg 78%
    05:00 -8°C° 0.3 mm 14 mps 748 mmHg 78%
    06:00 -7°C° 0.2 mm 13 mps 747 mmHg 78%
    07:00 -7°C° 0.2 mm 11 mps 747 mmHg 77%
    08:00 -7°C° 0.2 mm 10 mps 747 mmHg 76%
    09:00 -5°C° 0.1 mm 9 mps 747 mmHg 79%
    10:00 -5°C° 0.1 mm 8 mps 746 mmHg 81%
    11:00 -4°C° 0.1 mm 6 mps 746 mmHg 83%
    12:00 -4°C° 0.8 mm 6 mps 745 mmHg 87%
    13:00 -4°C° 0.8 mm 5 mps 745 mmHg 91%
    14:00 -3°C° 0.8 mm 4 mps 744 mmHg 94%
    15:00 -4°C° 0.7 mm 5 mps 744 mmHg 89%
    16:00 -5°C° 0.7 mm 6 mps 744 mmHg 84%
    17:00 -6°C° 0.7 mm 7 mps 744 mmHg 79%
    18:00 -5°C° 0.2 mm 6 mps 744 mmHg 80%
    19:00 -5°C° 0.2 mm 5 mps 744 mmHg 80%
    20:00 -5°C° 0.2 mm 4 mps 744 mmHg 80%
    21:00 -5°C° 0.2 mm 4 mps 745 mmHg 80%
    22:00 -5°C° 0.2 mm 4 mps 745 mmHg 79%
    23:00 -5°C° 0.2 mm 4 mps 745 mmHg 78%

    29 March, Friday

    Time Temperature Precipitation Wind Pressure Humidity
    00:00 -5°C° 0.3 mm 4 mps 745 mmHg 80%
    01:00 -5°C° 0.3 mm 3 mps 745 mmHg 82%
    02:00 -5°C° 0.3 mm 3 mps 746 mmHg 85%
    03:00 -4°C° 0.1 mm 2 mps 746 mmHg 83%
    04:00 -5°C° 0.1 mm 2 mps 747 mmHg 82%
    05:00 -5°C° 0.1 mm 2 mps 747 mmHg 80%
    06:00 -6°C° 0.1 mm 3 mps 748 mmHg 83%
    07:00 -6°C° 0.1 mm 3 mps 749 mmHg 85%
    08:00 -5°C° 0.1 mm 4 mps 750 mmHg 87%
    09:00 -5°C° 0.1 mm 4 mps 751 mmHg 84%
    10:00 -5°C° 0.1 mm 4 mps 752 mmHg 80%
    11:00 -6°C° 0.1 mm 5 mps 753 mmHg 76%
    12:00 -6°C° 0.1 mm 5 mps 755 mmHg 75%
    13:00 -6°C° 0.1 mm 6 mps 756 mmHg 73%
    14:00 -6°C° 0.1 mm 6 mps 757 mmHg 72%
    15:00 -8°C° 0 mm 7 mps 758 mmHg 74%
    16:00 -8°C° 0 mm 7 mps 759 mmHg 75%
    17:00 -9°C° 0 mm 7 mps 760 mmHg 77%
    18:00 -10°C° 0 mm 6 mps 761 mmHg 76%
    19:00 -10°C° 0 mm 5 mps 763 mmHg 75%
    20:00 -10°C° 0 mm 4 mps 764 mmHg 74%
    21:00 -9°C° 0 mm 2 mps 765 mmHg 75%
    22:00 -9°C° 0 mm 1 mps 766 mmHg 75%
    23:00 -9°C° 0 mm 0 mps 767 mmHg 76%

    30 March, Saturday

    Time Temperature Precipitation Wind Pressure Humidity
    00:00 -9°C° 0 mm 1 mps 767 mmHg 77%
    01:00 -10°C° 0 mm 2 mps 768 mmHg 77%
    02:00 -10°C° 0 mm 2 mps 768 mmHg 78%
    03:00 -12°C° 0 mm 3 mps 768 mmHg 78%
    04:00 -12°C° 0 mm 3 mps 769 mmHg 78%
    05:00 -12°C° 0 mm 3 mps 769 mmHg 79%
    06:00 -12°C° 0 mm 4 mps 769 mmHg 77%
    07:00 -11°C° 0 mm 4 mps 769 mmHg 76%
    08:00 -11°C° 0 mm 5 mps 769 mmHg 74%
    09:00 -10°C° 0 mm 5 mps 769 mmHg 74%
    10:00 -8°C° 0 mm 6 mps 769 mmHg 74%
    11:00 -6°C° 0 mm 6 mps 769 mmHg 74%
    12:00 -6°C° 0 mm 7 mps 768 mmHg 76%
    13:00 -6°C° 0 mm 7 mps 768 mmHg 79%
    14:00 -4°C° 0 mm 7 mps 768 mmHg 81%
    15:00 -4°C° 0.1 mm 7 mps 767 mmHg 83%
    16:00 -4°C° 0.1 mm 7 mps 766 mmHg 85%
    17:00 -3°C° 0.1 mm 7 mps 765 mmHg 88%
    18:00 -3°C° 0.5 mm 7 mps 764 mmHg 89%
    19:00 -2°C° 0.5 mm 8 mps 763 mmHg 90%
    20:00 -1°C° 0.5 mm 8 mps 762 mmHg 91%
    21:00 -1°C° 0.5 mm 8 mps 761 mmHg 90%
    22:00 -1°C° 0.5 mm 9 mps 760 mmHg 90%
    23:00 0°C° 0.5 mm 9 mps 759 mmHg 89%

    31 March, Sunday

    Time Temperature Precipitation Wind Pressure Humidity
    00:00 0°C° 0.8 mm 9 mps 758 mmHg 89%
    01:00 0°C° 0.8 mm 9 mps 757 mmHg 90%
    02:00 0°C° 0.8 mm 8 mps 756 mmHg 90%
    03:00 0°C° 0.7 mm 9 mps 756 mmHg 87%
    04:00 0°C° 0.7 mm 9 mps 755 mmHg 85%
    05:00 0°C° 0.7 mm 10 mps 754 mmHg 83%
    06:00 -2°C° 0.3 mm 10 mps 754 mmHg 82%
    07:00 -3°C° 0.3 mm 10 mps 754 mmHg 80%
    08:00 -3°C° 0.3 mm 10 mps 754 mmHg 79%
    09:00 -3°C° 0.1 mm 10 mps 753 mmHg 80%
    10:00 -3°C° 0.1 mm 10 mps 753 mmHg 80%
    11:00 -4°C° 0.1 mm 10 mps 753 mmHg 80%
    12:00 -3°C° 0.3 mm 10 mps 753 mmHg 80%
    13:00 -3°C° 0.3 mm 10 mps 752 mmHg 79%
    14:00 -3°C° 0.3 mm 10 mps 752 mmHg 78%
    15:00 -3°C° 0.3 mm 9 mps 751 mmHg 78%
    16:00 -4°C° 0.3 mm 8 mps 751 mmHg 79%
    17:00 -4°C° 0.3 mm 8 mps 750 mmHg 79%
    18:00 -3°C° 0.2 mm 7 mps 750 mmHg 79%
    19:00 -4°C° 0.2 mm 6 mps 750 mmHg 79%
    20:00 -4°C° 0.2 mm 6 mps 750 mmHg 79%
    21:00 -5°C° 0.2 mm 5 mps 750 mmHg 79%
    22:00 -5°C° 0.2 mm 5 mps 750 mmHg 79%
    23:00 -6°C° 0.2 mm 5 mps 750 mmHg 79%
    Show more